Stations météo

Publicité
Bonn-Roleber, Allemagne (10519): Température de l'air & dewpoint: 18.10.2018 01:00:00 - 24.10.2018 01:00:00 (CEST)Bonn-Roleber, Allemagne (10519): Température de l'air 5cm & Température de l'air -5cm: 18.10.2018 01:00:00 - 24.10.2018 01:00:00 (CEST)Bonn-Roleber, Allemagne (10519): Température de l'air -20cm & Température de l'air -100cm: 18.10.2018 01:00:00 - 24.10.2018 01:00:00 (CEST)Bonn-Roleber, Allemagne (10519): Vitesse du vent & gusts: 18.10.2018 01:00:00 - 24.10.2018 01:00:00 (CEST)Bonn-Roleber, Allemagne (10519): Direction du vent: 18.10.2018 01:00:00 - 24.10.2018 01:00:00 (CEST)Bonn-Roleber, Allemagne (10519): reduced air pressure: 18.10.2018 01:00:00 - 24.10.2018 01:00:00 (CEST)Bonn-Roleber, Allemagne (10519): visibility: 18.10.2018 01:00:00 - 24.10.2018 01:00:00 (CEST)Bonn-Roleber, Allemagne (10519): Ensoleillement: 18.10.2018 01:00:00 - 24.10.2018 01:00:00 (CEST)Bonn-Roleber, Allemagne (10519): Quantités de précipitations: 18.10.2018 01:00:00 - 24.10.2018 01:00:00 (CEST)
Date & Time tt [°C] td [°C] tt 5cm [°C] tt -5cm [°C] tt -20cm [°C] tt -100cm [°C] ff [km/h] ff [knt] fx [km/h] fx [knt] dd ppp [hPa] vv [km] sd [min] rr [mm]
24.10.2018 01:00:00 12,2 9,3 11,9 10,9 11,3 14,5 21 12 44 24 W 1023,1 16 0 0,0
24.10.2018 00:00:00 11,6 9,0 11,0 10,9 11,3 14,5 15 8 35 19 W 1023,4 8 0 0,0
23.10.2018 23:00:00 11,9 9,1 11,7 10,9 11,3 14,5 16 9 44 24 W 1023,9 15 0 0,0
23.10.2018 22:00:00 11,9 8,7 11,7 10,9 11,2 14,5 16 9 37 20 W 1023,9 19 0 0,0
23.10.2018 21:00:00 11,9 8,5 11,5 11,0 11,2 14,5 16 9 41 22 W 1024,0 15 0 0,0
23.10.2018 20:00:00 12,4 7,8 12,2 11,0 11,2 14,5 22 12 46 25 WNW 1023,9 21 0 0,0
23.10.2018 19:00:00 12,3 6,9 12,0 11,0 11,1 14,6 17 9 40 21 W 1023,4 30 0 0,0
23.10.2018 18:00:00 12,4 6,7 12,1 11,3 11,0 14,6 20 11 49 26 W 1022,9 27 0 0,0
23.10.2018 17:00:00 12,5 6,6 12,3 11,6 10,8 14,6 14 8 45 24 W 1022,7 29 0 0,0
23.10.2018 16:00:00 12,7 6,7 13,1 11,9 10,6 14,6 13 7 36 20 W 1023,1 27 0 0,0
23.10.2018 15:00:00 13,5 6,1 15,8 12,2 10,3 14,6 16 9 36 20 WNW 1023,5 33 46 0,0
23.10.2018 14:00:00 11,9 5,5 13,1 11,2 10,0 14,6 18 10 46 25 W 1024,1 28 26 0,0
23.10.2018 13:00:00 10,6 5,6 11,0 9,9 9,8 14,6 15 8 38 20 W 1025,3 29 1 0,0
23.10.2018 12:00:00 10,1 5,7 10,2 9,0 9,7 14,6 13 7 33 18 W 1026,4 33 0 0,0
23.10.2018 11:00:00 8,2 4,8 8,4 8,3 9,6 14,6 6 3 15 8 WSW 1027,6 30 0 0,0
23.10.2018 10:00:00 6,5 4,0 6,3 7,3 9,7 14,7 10 5 21 12 SW 1027,7 26 0 0,0
23.10.2018 09:00:00 5,8 3,5 5,0 6,8 9,7 14,7 11 6 22 12 SW 1028,7 27 0 0,0
23.10.2018 08:00:00 5,9 3,4 4,6 6,7 9,8 14,7 10 5 19 11 SW 1029,1 27 0 0,0
23.10.2018 07:00:00 5,6 3,3 3,7 6,9 9,9 14,7 7 4 19 10 SW 1030,2 25 0 0,0
23.10.2018 06:00:00 5,6 3,5 4,2 6,7 10,1 14,7 8 4 18 10 SW 1030,6 24 0 0,0
23.10.2018 05:00:00 5,2 3,6 3,7 6,7 10,2 14,7 10 5 21 11 SW 1030,7 18 0 0,0
23.10.2018 04:00:00 4,8 3,7 2,5 6,8 10,4 14,7 10 5 16 8 SSW 1031,5 12 0 0,0
23.10.2018 03:00:00 5,1 4,2 3,1 6,8 10,6 14,7 4 2 13 7 SW 1032,7 13 0 0,0
23.10.2018 02:00:00 6,0 4,7 2,2 7,3 10,8 14,7 5 3 12 7 W 1033,2 19 0 0,0
23.10.2018 01:00:00 6,2 4,7 3,9 7,4 11,1 14,8 8 4 12 6 WNW 1033,8 22 0 0,0
23.10.2018 00:00:00 6,0 5,1 1,3 7,9 11,3 14,8 5 3 12 7 W 1033,4 18 0 0,0
22.10.2018 23:00:00 6,2 4,8 2,7 8,7 11,4 14,8 4 2 6 3 ESE 1033,6 23 0 0,0
22.10.2018 22:00:00 8,3 6,1 4,2 9,5 11,5 14,8 5 3 6 4 NW 1033,8 29 0 0,0
22.10.2018 21:00:00 10,0 6,3 6,8 10,1 11,6 14,8 5 3 11 6 N 1033,3 34 0 0,0
22.10.2018 20:00:00 10,8 6,6 7,7 10,7 11,6 14,8 6 4 11 6 N 1032,7 34 0 0,0
22.10.2018 19:00:00 10,8 8,0 10,0 11,2 11,6 14,8 2 1 4 2 NW 1032,6 22 0 0,0
22.10.2018 18:00:00 12,2 7,1 11,2 11,4 11,5 14,8 3 2 10 5 NNW 1032,4 43 35 0,0
22.10.2018 17:00:00 12,1 6,9 11,0 12,0 11,4 14,8 7 4 19 11 N 1031,6 59 1 0,0
22.10.2018 16:00:00 12,0 7,8 12,5 11,6 11,2 14,9 9 5 29 15 N 1031,6 62 0 0,0
22.10.2018 15:00:00 10,9 9,1 11,1 12,0 11,0 14,9 6 3 13 7 NW 1031,5 7 0 0,0
22.10.2018 14:00:00 10,7 8,3 12,2 11,5 10,8 14,9 5 3 13 7 WNW 1031,4 9 3 0,0
22.10.2018 13:00:00 8,7 7,0 9,5 10,4 10,7 14,9 6 4 13 7 WNW 1031,5 7 0 0,1
22.10.2018 12:00:00 8,3 6,0 8,5 10,0 10,6 14,9 5 3 11 6 NW 1031,4 4,8 0 0,0
22.10.2018 11:00:00 8,8 5,5 9,2 9,7 10,5 14,9 5 3 9 5 S 1030,5 16 0 0,0
22.10.2018 10:00:00 8,0 5,6 8,5 9,1 10,4 14,9 2 1 7 4 ENE 1029,9 16 0 0,0
22.10.2018 09:00:00 7,1 5,6 6,8 8,5 10,4 14,9 3 2 6 3 ESE 1029,3 16 0 0,0
22.10.2018 08:00:00 6,7 5,2 6,3 8,1 10,4 14,9 5 3 9 5 SSW 1028,5 10 0 0,0
22.10.2018 07:00:00 5,7 4,8 5,1 7,7 10,5 14,9 4 2 9 5 SSE 1028,1 10 0 0,0
22.10.2018 06:00:00 4,7 4,0 4,1 7,0 10,7 15,0 4 2 6 4 E 1027,9 14 0 0,0
22.10.2018 05:00:00 3,7 3,1 1,9 7,0 10,9 15,0 6 4 9 5 ESE 1027,6 10 0 0,0
22.10.2018 04:00:00 4,1 3,5 0,6 7,2 11,1 15,0 5 3 8 4 E 1027,9 10 0 0,0
22.10.2018 03:00:00 4,3 3,6 0,9 7,5 11,3 15,0 4 2 6 3 ESE 1028,0 10 0 0,0
22.10.2018 02:00:00 4,6 3,7 2,0 7,9 11,5 15,0 5 3 5 3 ESE 1027,9 13 0 0,0
22.10.2018 01:00:00 6,0 4,5 2,6 8,2 11,7 15,0 2 1 6 4 NW 1027,7 21 0 0,0
22.10.2018 00:00:00 6,5 5,0 3,2 8,6 11,9 15,0 3 1 6 3 SW 1027,5 21 0 0,0
21.10.2018 23:00:00 7,1 5,1 2,7 9,1 12,1 15,0 3 2 6 3 S 1027,3 30 0 0,0
21.10.2018 22:00:00 7,6 5,0 3,7 9,6 12,4 15,1 4 2 11 6 E 1027,1 23 0 0,0
21.10.2018 21:00:00 9,0 5,3 4,4 10,2 12,5 15,1 9 5 12 7 SE 1027,1 34 0 0,0
21.10.2018 20:00:00 9,3 5,5 5,9 10,8 12,7 15,1 10 5 13 7 ESE 1027,2 38 0 0,0
21.10.2018 19:00:00 9,9 5,6 6,9 11,8 12,8 15,1 8 4 10 5 SE 1027,0 40 1 0,0
21.10.2018 18:00:00 13,7 5,6 10,4 13,0 12,7 15,1 7 4 11 6 S 1026,7 51 60 0,0
21.10.2018 17:00:00 15,2 5,2 13,7 14,4 12,5 15,1 7 4 16 8 S 1027,1 53 60 0,0
21.10.2018 16:00:00 15,8 4,7 17,5 15,3 12,1 15,1 7 4 16 9 SSW 1027,7 42 60 0,0
21.10.2018 15:00:00 15,4 5,3 17,7 15,2 11,6 15,1 4 2 12 7 SSE 1028,0 35 60 0,0
21.10.2018 14:00:00 15,3 6,3 18,5 14,8 11,1 15,1 5 3 13 7 SSW 1028,6 25 60 0,0
21.10.2018 13:00:00 13,4 5,0 17,0 13,6 10,6 15,1 3 2 8 4 SSE 1029,4 20 60 0,0
21.10.2018 12:00:00 11,6 5,9 15,3 11,5 10,3 15,2 5 3 10 5 SW 1029,9 14 60 0,0
21.10.2018 11:00:00 8,7 5,2 9,9 8,9 10,2 15,2 4 2 10 5 ENE 1030,5 14 60 0,0
21.10.2018 10:00:00 5,8 3,9 4,6 6,6 10,3 15,2 6 3 10 5 E 1030,8 8 60 0,0
21.10.2018 09:00:00 2,7 2,4 0,6 6,2 10,5 15,2 4 2 5 3 ENE 1030,5 2,7 25 0,0
21.10.2018 08:00:00 2,2 1,9 -0,1 6,3 10,7 15,2 4 2 6 3 ESE 1030,2 1,3 0 0,0
21.10.2018 07:00:00 2,8 2,6 0,0 6,5 10,9 15,2 4 2 8 4 SSW 1030,4 0,5 0 0,0
21.10.2018 06:00:00 2,2 1,8 -0,2 6,7 11,1 15,2 5 3 8 4 SSE 1030,8 2,1 0 0,0
21.10.2018 05:00:00 3,0 2,5 0,0 6,9 11,3 15,2 4 2 6 3 N 1031,0 2,6 0 0,0
21.10.2018 04:00:00 3,2 2,8 0,6 7,2 11,6 15,2 4 2 8 5 SSE 1031,0 2,8 0 0,0
21.10.2018 03:00:00 3,6 3,2 0,5 7,6 11,8 15,2 4 2 5 3 WNW 1031,0 2,1 0 0,0
21.10.2018 02:00:00 4,1 3,6 0,8 7,9 12,0 15,2 0 0 5 3 N 1031,1 4,1 0 0,0
21.10.2018 01:00:00 4,7 4,1 1,2 8,3 12,3 15,2 3 2 5 3 SE 1031,5 5 0 0,0
21.10.2018 00:00:00 4,9 4,2 1,5 8,7 12,6 15,3 5 3 6 3 SE 1031,5 4,6 0 0,0
20.10.2018 23:00:00 5,3 4,4 1,5 9,2 12,8 15,3 3 1 7 4 ENE 1031,9 7 0 0,0
20.10.2018 22:00:00 6,1 4,9 1,9 9,9 13,1 15,3 3 2 5 3 N 1031,3 12 0 0,0
20.10.2018 21:00:00 6,6 4,9 3,2 10,7 13,3 15,3 2 1 6 4 SW 1031,3 13 0 0,0
20.10.2018 20:00:00 9,9 5,9 5,3 11,4 13,5 15,3 5 3 9 5 NW 1031,3 20 0 0,0
20.10.2018 19:00:00 9,4 6,0 5,4 12,5 13,6 15,3 5 3 9 5 WNW 1031,1 17 0 0,0
20.10.2018 18:00:00 12,4 6,1 10,7 13,8 13,5 15,3 5 3 13 7 W 1030,3 16 26 0,0
20.10.2018 17:00:00 13,5 6,2 13,0 14,8 13,3 15,3 4 2 12 7 WNW 1030,0 15 48 0,0
20.10.2018 16:00:00 13,4 6,2 15,8 15,4 13,0 15,3 5 3 13 7 NNW 1030,4 13 60 0,0
20.10.2018 15:00:00 12,8 6,3 16,7 15,3 12,6 15,3 5 3 15 8 NNW 1030,7 13 60 0,0
20.10.2018 14:00:00 13,1 7,2 16,8 14,8 12,3 15,3 5 3 11 6 NNW 1031,1 11 57 0,0
20.10.2018 13:00:00 11,1 6,9 12,5 13,7 11,9 15,3 5 3 12 6 W 1031,7 7 56 0,0
20.10.2018 12:00:00 10,0 7,9 11,1 11,8 11,8 15,3 4 2 12 6 SW 1031,9 4,0 21 0,0
20.10.2018 11:00:00 8,1 7,5 8,7 10,6 11,7 15,4 5 3 13 7 WNW 1031,9 2,0 0 0,0
20.10.2018 10:00:00 7,5 7,1 8,2 9,7 11,7 15,4 4 2 7 4 SW 1031,0 0,6 0 0,0
20.10.2018 09:00:00 6,8 6,5 6,8 8,5 11,8 15,4 3 1 6 4 WSW 1030,4 1,4 0 0,0
20.10.2018 08:00:00 5,8 5,4 4,0 8,3 12,0 15,4 5 3 9 5 W 1029,7 2,0 0 0,0
20.10.2018 07:00:00 6,1 5,8 3,7 8,4 12,2 15,4 6 4 9 5 WNW 1029,4 0,5 0 0,0
20.10.2018 06:00:00 6,7 6,4 4,3 8,6 12,4 15,4 6 3 11 6 W 1028,4 0,9 0 0,0
20.10.2018 05:00:00 6,7 6,4 2,7 9,0 12,6 15,4 4 2 11 6 W 1028,2 1,7 0 0,0
20.10.2018 04:00:00 7,9 7,5 4,7 9,5 12,8 15,4 5 3 7 4 W 1027,6 2,6 0 0,0
20.10.2018 03:00:00 8,6 8,1 5,7 10,0 13,0 15,4 4 2 7 4 W 1027,1 2,6 0 0,0
20.10.2018 02:00:00 8,1 7,7 4,9 10,0 13,2 15,4 4 2 8 5 WSW 1027,1 3,0 0 0,0
20.10.2018 01:00:00 8,3 7,7 4,3 10,5 13,4 15,4 4 2 8 4 W 1026,7 3,1 0 0,0
20.10.2018 00:00:00 9,3 8,8 7,4 10,8 13,6 15,4 5 3 8 4 W 1026,4 4,9 0 0,0
19.10.2018 23:00:00 9,0 8,2 6,0 11,3 13,8 15,4 5 3 6 4 WSW 1025,9 3,4 0 0,0
19.10.2018 22:00:00 10,4 9,2 8,4 11,7 13,9 15,4 4 2 7 4 W 1025,8 6 0 0,0
19.10.2018 21:00:00 10,3 9,3 8,3 11,8 14,2 15,4 5 3 7 4 W 1025,5 5 0 0,0
19.10.2018 20:00:00 9,5 8,6 6,0 12,3 14,3 15,4 0 0 5 3 N 1025,0 4,0 0 0,0
19.10.2018 19:00:00 10,4 8,8 6,6 13,3 14,4 15,4 4 2 5 3 WNW 1024,3 7 2 0,0
19.10.2018 18:00:00 13,6 9,3 11,0 14,6 14,4 15,5 3 2 6 3 WNW 1023,4 9 60 0,0
19.10.2018 17:00:00 14,8 9,1 14,4 15,6 14,3 15,5 4 2 8 5 ENE 1023,4 10 19 0,0
19.10.2018 16:00:00 14,7 9,0 15,5 16,4 14,0 15,5 5 3 9 5 NE 1023,7 9 0 0,0
19.10.2018 15:00:00 14,9 9,3 16,2 16,5 13,6 15,5 4 2 12 6 ENE 1024,0 10 11 0,0
19.10.2018 14:00:00 15,3 9,5 17,8 16,7 13,1 15,5 6 4 14 7 ESE 1024,1 10 49 0,0
19.10.2018 13:00:00 13,8 8,6 17,0 15,2 12,8 15,5 4 2 13 7 E 1024,6 10 60 0,0
19.10.2018 12:00:00 12,6 10,1 13,3 13,4 12,5 15,5 4 2 8 4 SSE 1025,1 7 19 0,0
19.10.2018 11:00:00 10,1 9,6 10,9 11,8 12,4 15,5 4 2 6 4 SSE 1025,4 3,8 0 0,0
19.10.2018 10:00:00 9,0 8,7 9,3 10,6 12,4 15,5 0 0 5 3 N 1025,2 1,3 0 0,0
19.10.2018 09:00:00 7,3 7,2 7,6 9,4 12,6 15,5 3 2 4 2 SW 1025,0 0,1 0 0,0
19.10.2018 08:00:00 5,2 5,0 4,3 8,9 12,8 15,5 2 1 6 3 SSE 1024,9 0,1 0 0,0
19.10.2018 07:00:00 5,9 5,7 3,1 8,9 13,0 15,5 3 1 4 2 W 1024,6 0,6 0 0,0
19.10.2018 06:00:00 6,2 6,0 2,9 9,2 13,2 15,5 3 1 5 3 SW 1024,5 1,8 0 0,0
19.10.2018 05:00:00 6,6 6,3 2,9 9,6 13,4 15,5 4 2 7 4 SE 1024,3 1,0 0 0,0
19.10.2018 04:00:00 7,2 6,9 3,1 9,9 13,7 15,5 3 2 5 3 ENE 1024,1 1,2 0 0,0
19.10.2018 03:00:00 7,7 7,5 3,6 10,2 13,9 15,5 4 2 5 3 ESE 1024,2 0,2 0 0,0
19.10.2018 02:00:00 7,8 7,4 3,8 10,6 14,2 15,5 3 1 6 3 SE 1024,5 0,1 0 0,0
19.10.2018 01:00:00 8,8 8,0 4,4 11,1 14,5 15,5 4 2 8 4 NNE 1024,3 4,2 0 0,0
19.10.2018 00:00:00 9,7 8,3 5,8 11,7 14,7 15,5 3 2 11 6 NNE 1024,5 8 0 0,0
18.10.2018 23:00:00 11,0 9,0 6,1 12,2 14,9 15,5 5 3 11 6 NE 1024,5 10 0 0,0
18.10.2018 22:00:00 11,8 8,9 7,6 12,8 15,2 15,5 5 3 11 6 ENE 1024,3 13 0 0,0
18.10.2018 21:00:00 12,8 8,3 8,7 13,5 15,3 15,5 6 3 10 5 NNE 1023,7 19 0 0,0
18.10.2018 20:00:00 13,1 8,6 9,2 14,5 15,4 15,5 6 3 10 5 N 1023,4 25 0 0,0
18.10.2018 19:00:00 15,5 9,2 14,5 15,4 15,5 15,5 6 3 10 5 N 1022,9 23 0 0,0
18.10.2018 18:00:00 16,0 8,9 15,6 15,9 15,4 15,5 7 4 16 9 N 1022,7 20 0 0,0
18.10.2018 17:00:00 16,3 10,5 16,4 16,3 15,3 15,5 5 3 19 10 NNW 1022,6 9 2 0,0
18.10.2018 16:00:00 17,0 11,2 18,9 16,7 15,2 15,5 5 3 16 9 NW 1022,8 8 9 0,0
18.10.2018 15:00:00 16,1 10,7 17,2 16,5 15,0 15,5 9 5 16 9 N 1023,0 8 0 0,0
18.10.2018 14:00:00 16,0 11,5 17,5 16,0 14,9 15,5 9 5 18 10 NNW 1023,0 7 0 0,0
18.10.2018 13:00:00 14,9 11,7 15,5 15,9 14,7 15,5 9 5 14 8 N 1023,3 4,6 0 0,0
18.10.2018 12:00:00 14,7 12,0 16,1 15,6 14,6 15,5 6 3 14 7 WNW 1023,4 3,9 0 0,0
18.10.2018 11:00:00 13,7 11,8 15,2 14,6 14,5 15,5 6 3 14 7 NNW 1023,0 2,8 0 0,0
18.10.2018 10:00:00 13,4 12,0 13,3 13,9 14,5 15,5 6 3 11 6 WNW 1022,9 2,0 0 0,0
18.10.2018 09:00:00 13,1 12,1 13,1 13,6 14,5 15,5 4 2 7 4 WNW 1022,6 1,6 0 0,0
18.10.2018 08:00:00 12,8 11,8 12,6 13,5 14,5 15,5 3 2 9 5 NNW 1022,2 1,3 0 0,0
18.10.2018 07:00:00 12,5 11,7 12,3 13,4 14,5 15,5 4 2 16 8 NNW 1021,9 1,1 0 0,0
18.10.2018 06:00:00 12,5 11,9 12,4 13,3 14,6 15,5 6 3 14 8 WNW 1021,5 1,3 0 0,0
18.10.2018 05:00:00 12,6 11,9 12,4 13,0 14,7 15,5 7 4 13 7 W 1021,0 1,3 0 0,0
18.10.2018 04:00:00 12,2 11,7 11,8 12,3 14,8 15,5 6 3 9 5 W 1021,0 1,6 0 0,0
18.10.2018 03:00:00 12,1 11,4 9,2 12,5 15,0 15,5 5 3 10 5 W 1020,8 1,8 0 0,0
18.10.2018 02:00:00 12,5 11,4 10,7 12,9 15,2 15,5 5 3 8 4 W 1020,9 2,2 0 0,0
18.10.2018 01:00:00 13,3 11,5 10,3 13,3 15,4 15,5 5 3 10 6 W 1020,7 3,0 0 0,0

tt = Température de l'air
td = dewpoint
tt 5cm = Température de l'air 5cm
tt -5cm = Température de l'air -5cm
tt -20cm = Température de l'air -20cm
tt -100cm = Température de l'air -100cm
ff = Vitesse du vent
fx = gusts
dd = Direction du vent
ppp = reduced air pressure
vv = visibility
sd = Ensoleillement
rr = Quantités de précipitations

stations d'obs. à proximité